Aeroporto :
LOGIN :

Iscrizione | Disclaimer

   EN    FR    IT 

 










Sommario :    VFR   VFR Marginale   IFR   IFR Intensivo   IFR Molto Intensivo
Visibilità : 
Base nubi : 
>= 8 km
>= 3000ft
5 / 8 km
1000 / 3000 ft
1500m / 5 km
500 / 1000 ft
800 / 1500m
200 / 500 ft
< 800m
< 200 ft
Simboli :   Temporali  Nebbia  Neve Forte  Precipitazioni Forti  Vento > 20 kt
SIGMETs :   Varie  Temporali  Ghiacco  Turbolenza  Onda orograficha  Ceneri Vulcaniche






- Altitudine del aeroporto : 2936 ft


LECH - Calamocha

ULTIMO METAR :
  • 200400Z AUTO 16003KT CAVOK 18/10 Q1016

METARs OBSOLETI :
  • 200330Z AUTO 18004KT 160V220 CAVOK 18/10 Q1016
  • 200300Z AUTO 18003KT CAVOK 18/10 Q1016
  • 200230Z AUTO 00000KT CAVOK 18/11 Q1016
  • 200200Z AUTO 19004KT CAVOK 18/11 Q1016
  • 200130Z AUTO 19003KT 150V240 CAVOK 19/11 Q1016

Previsioni scadute.



MetMap, La meteo Aeronautica in un colpo d'occhio ! - Copyright ORBIFLY Dicembre 2007 - Disclaimer

ORBIFLY MET'MAP TEAM :

Programmazione e sviluppo : Alexandra Zaïnal
Concezione : Baudouin d'Aumeries
Aiuto per la programmazione : Marc-Olivier Méhu
Supporto tecnico e logistico : Manuel Goepfert
Aiuto per la traduzione : Arnaldo La Scala

Contatto : metmap@orbifly.com




FONTI E CREDITI :

   NOAA